ALCOMSAT 1

Last updated on Wed Sep 17 2025 00:02:49 GMT+0000 (Coordinated Universal Time)

1 43039U 17078A 25259.43605137 -.00000205 00000+0 00000+0 0 9990 2 43039 0.0372 225.7562 0002950 324.8824 297.1744 1.00271194 28558
UTC large
Height (km)
Speed (km/s)
/
Latitude / Longitude
Inclination (degrees)
Orbital Period (minutes)
Azimuth
Elevation
Range (km)
Doppler Factor

Next 0 passes for location: London (51.5072 / 0.1276)

Sorry there are no passes over London.